Estación de Illapel

Ultimos registro cada 15 minutos 44
Estación Fecha / Hora Temperatura Humedad Lluvia Velocidad Dirección Radiación Presion
44 Illapel 07-05-2026 10:45 17,4 52 0 0,4 348 504 1003,8
43 Illapel 07-05-2026 10:30 16,9 54 0 0,4 328 464 1003,8
42 Illapel 07-05-2026 10:15 16,6 54 0 0 353 445 1003,8
41 Illapel 07-05-2026 10:00 16,1 55 0 0 330 411 1003,8
40 Illapel 07-05-2026 09:45 14,9 55 0 0 309 299 1003,8
39 Illapel 07-05-2026 09:30 13,9 55 0 0 260 236 1003,8
38 Illapel 07-05-2026 09:15 13,5 56 0 0 258 95 1003,8
37 Illapel 07-05-2026 09:00 13,2 57 0 0 254 109 1003,8
36 Illapel 07-05-2026 08:45 12,7 58 0 0 253 97 1003,8
35 Illapel 07-05-2026 08:30 12,3 59 0 0 253 72 1003,8
34 Illapel 07-05-2026 08:15 12 59 0 0 253 56 1003,8
33 Illapel 07-05-2026 08:00 11,8 59 0 0 253 37 1003,8
32 Illapel 07-05-2026 07:45 11,7 59 0 0 253 21 1003,8
31 Illapel 07-05-2026 07:30 11,7 59 0 0 253 0 1003,8
30 Illapel 07-05-2026 07:15 11,6 59 0 0 253 0 1003,8
29 Illapel 07-05-2026 07:00 11,5 59 0 0 253 0 1003,8
28 Illapel 07-05-2026 06:45 11,6 58 0 0 253 0 1003,8
27 Illapel 07-05-2026 06:30 11,8 58 0 0 253 0 1003,8
26 Illapel 07-05-2026 06:15 11,9 58 0 0 248 0 1003,8
25 Illapel 07-05-2026 06:00 12 58 0 0 249 0 1003,8
24 Illapel 07-05-2026 05:45 12,1 58 0 0 248 0 1003,8
23 Illapel 07-05-2026 05:30 12,1 58 0 0 248 0 1003,8
22 Illapel 07-05-2026 05:15 12,1 58 0 0,9 253 0 1003,8
21 Illapel 07-05-2026 05:00 12,1 58 0 0 257 0 1003,8
20 Illapel 07-05-2026 04:45 12,2 58 0 0 281 0 1003,8
19 Illapel 07-05-2026 04:30 12,4 57 0 0 293 0 1003,8
18 Illapel 07-05-2026 04:15 12,6 57 0 0,9 297 0 1003,8
17 Illapel 07-05-2026 04:00 12,8 57 0 0 298 0 1003,8
16 Illapel 07-05-2026 03:45 12,9 57 0 0 328 0 1003,8
15 Illapel 07-05-2026 03:30 12,8 58 0 0 328 0 1003,8
14 Illapel 07-05-2026 03:15 12,8 58 0 0 325 0 1003,8
13 Illapel 07-05-2026 03:00 12,9 57 0 2,7 319 0 1003,8
12 Illapel 07-05-2026 02:45 13,3 56 0 1,3 254 0 1003,8
11 Illapel 07-05-2026 02:30 13,7 56 0 0 310 0 1003,8
10 Illapel 07-05-2026 02:15 13,8 56 0 0 323 0 1003,8
9 Illapel 07-05-2026 02:00 14 56 0 0 321 0 1003,8
8 Illapel 07-05-2026 01:45 14,1 56 0 0 317 0 1003,8
7 Illapel 07-05-2026 01:30 14,1 56 0 0 353 0 1003,8
6 Illapel 07-05-2026 01:15 14 57 0 0 350 0 1003,8
5 Illapel 07-05-2026 01:00 14,1 58 0 0 327 0 1003,8
4 Illapel 07-05-2026 00:45 14,3 58 0 0 296 0 1003,8
3 Illapel 07-05-2026 00:30 14,6 57 0 0,4 323 0 1003,8
2 Illapel 07-05-2026 00:15 14,6 57 0 0 323 0 1003,8
1 Illapel 07-05-2026 00:00 14,7 57 0 0 322 0 1003,8